SCP
0 0 0 0 0 0 0 0 0 0 0 1 1 1 2 2 2 2 2 1 1 1 0 0 0 0 0 0 0 0 0 0 0 0 0 0 0 0 0 0 0 0 0 0
0 0 0 0 0 0 0 0 0 0 0 1 1 1 1 2 2 1 1 1 1 0 0 0 0 0 0 0 0 0 0 0 0 0 0 0 0 0 0 0 0 0 0 0
0 0 0 0 0 0 0 0 0 0 0 0 1 1 1 1 1 1 1 0 0 0 0 0 0 0 0 0 0 0 0 0 0 0 0 0 0 0 0 0 0 0 0 0
0 0 0 0 0 0 0 0 0 0 0 0 0 0 0 0 0 0 0 0 0 0 0 0 0 0 0 0 0 0 0 0 0 0 0 0 0 0 0 0 0 0 0 0
0 0 0 0 0 0 0 0 0 0 0 0 0 0 0 0 0 0 0 0 0 0 0 0 0 0 0 0 0 0 0 0 0 0 0 0 0 0 0 0 0 0 0 0
0 0 0 0 0 0 0 0 0 0 0 0 0 0 0 0 0 0 0 0 0 0 0 0 0 0 0 0 0 0 0 0 0 0 0 0 0 0 0 0 0 0 0 0
0 0 0 0 0 0 0 0 0 0 0 0 0 0 0 0 0 0 0 0 0 0 0 0 0 0 0 0 0 0 0 0 0 0 0 0 0 0 0 0 0 0 0 0
0 0 0 0 0 0 0 0 0 0 0 0 0 0 0 0 0 0 0 0 0 0 0 0 0 0 0 0 0 0 0 0 0 0 0 0 0 0 0 0 0 0 0 0
0 0 0 0 0 0 0 0 0 0 0 0 0 0 0 0 0 0 0 0 0 0 0 0 0 0 0 0 0 0 0 0 0 0 0 0 0 0 0 0 0 0 0 0
0 0 0 0 0 0 0 0 0 0 0 0 0 0 0 0 0 0 0 0 0 0 0 0 0 0 0 0 0 0 0 0 0 0 0 0 0 0 0 0 0 0 0 0
0 0 0 0 0 0 0 0 0 0 0 0 0 0 0 0 0 0 0 0 0 0 0 0 0 0 0 0 0 0 0 0 0 0 0 0 0 0 0 0 0 0 0 0
0 0 0 0 0 0 0 0 0 0 0 0 0 0 0 0 0 0 0 0 0 0 0 0 0 0 0 0 0 0 0 0 0 0 0 0 0 0 0 0 0 0 0 0
0 0 0 0 0 0 0 0 0 0 0 0 0 0 0 0 0 0 0 0 0 0 0 0 0 0 0 0 0 0 0 0 0 0 0 0 0 0 0 0 0 0 0 0
0 0 0 0 0 0 0 0 0 0 0 0 0 0 0 0 0 0 0 0 0 0 0 0 0 0 0 0 0 0 0 0 0 0 0 0 0 0 0 0 0 0 0 0
0 0 0 0 0 0 0 0 0 0 0 0 0 0 0 0 0 0 0 0 0 0 0 0 0 0 0 0 0 0 0 0 0 0 0 0 0 0 0 0 0 0 0 0
0 0 0 0 0 0 0 0 0 0 0 0 0 0 0 0 0 0 0 0 0 0 0 0 0 0 0 0 0 0 0 0 0 0 0 0 0 0 0 0 0 0 0 0
0 0 0 0 0 0 0 0 0 0 0 0 0 0 0 0 0 0 0 0 0 0 0 0 0 0 0 0 0 0 0 0 0 0 0 0 0 0 0 0 0 0 0 0
0 0 0 0 0 0 0 0 0 0 0 0 0 0 0 0 0 0 0 0 0 0 0 0 0 0 0 0 0 0 0 0 0 0 0 0 0 0 0 0 0 0 0 0
0 0 0 0 0 0 0 0 0 0 0 0 0 0 0 0 0 0 0 0 0 0 0 0 0 0 0 0 0 0 0 0 0 0 0 0 0 0 0 0 0 0 0 0
0 0 0 0 0 0 0 0 0 0 0 0 0 0 0 0 0 0 0 0 0 0 0 0 0 0 0 0 0 0 0 0 0 0 0 0 0 0 0 0 0 0 0 0
0 0 0 0 0 0 0 0 0 0 0 0 0 0 0 0 0 0 0 0 0 0 0 0 0 0 0 0 0 0 0 0 0 0 0 0 0 0 0 0 0 0 0 0
0 0 0 0 0 0 0 0 0 0 0 0 0 0 0 0 0 0 0 0 0 0 0 0 0 0 0 0 0 0 0 0 0 0 0 0 0 0 0 0 0 0 0 0
0 0 0 0 0 0 0 0 0 0 0 0 0 0 0 0 0 0 0 0 0 0 0 0 0 0 0 0 0 0 0 0 0 0 0 0 0 0 0 0 0 0 0 0
0 0 0 0 0 0 0 0 0 0 0 0 0 0 0 0 0 0 0 0 0 0 0 0 0 0 0 0 0 0 0 0 0 0 0 0 0 0 0 0 0 0 0 0
0 0 0 0 0 0 0 0 0 0 0 0 0 0 0 0 0 0 0 0 0 0 0 0 0 0 0 0 0 0 0 0 0 0 0 0 0 0 0 0 0 0 0 0
0 0 0 0 0 0 0 0 0 0 0 0 0 0 0 0 0 0 0 0 0 0 0 0 0 0 0 0 0 0 0 0 0 0 0 0 0 0 0 0 0 0 0 0
Wind_Speed
2 3 2 6 6 5 3 3 3 1 1 3 4 3 3 2 2 3 3 4 5 6 5 5 5 5 4 4 3 3 2 2 1 1 1 1 1 2 2 2 3 3 3 3
3 3 6 4 4 3 3 3 3 2 2 3 2 2 2 2 3 3 4 5 6 5 4 5 5 5 5 5 5 4 3 2 1 1 1 1 0 1 2 2 3 4 4 4
4 5 2 2 2 2 2 3 4 4 3 4 2 1 2 2 2 3 5 5 6 7 8 7 7 7 6 6 6 5 4 3 2 2 1 1 2 2 3 3 3 3 4 4
3 3 0 1 2 3 1 1 5 6 4 3 4 2 3 1 2 3 5 5 6 7 7 6 7 7 7 7 5 5 4 4 3 2 1 1 1 2 3 2 3 5 4 4
3 1 1 1 2 3 3 6 7 6 5 3 4 2 6 1 2 4 5 5 7 7 7 7 7 7 6 5 4 4 4 3 3 2 2 2 2 3 3 3 4 5 4 4
3 2 1 1 3 5 7 7 7 7 5 3 1 1 6 3 5 4 4 5 6 5 5 5 4 4 3 3 3 3 3 3 2 2 2 3 4 4 4 5 4 4 3 4
6 4 1 3 4 3 5 7 5 5 4 3 1 1 8 7 6 6 6 6 5 4 4 4 4 4 4 4 3 3 3 3 2 3 3 4 5 5 5 5 4 4 3 3
3 5 3 2 4 5 3 7 6 3 3 3 1 4 8 6 5 5 6 5 3 3 4 5 5 5 5 4 4 3 3 3 3 3 4 4 4 4 4 5 4 4 4 5
2 5 4 1 2 8 5 3 5 7 2 1 4 6 8 3 3 4 4 4 4 4 4 5 5 4 4 4 3 4 3 4 4 4 5 5 5 4 5 5 4 4 5 5
5 3 4 3 4 4 4 8 6 6 4 1 4 4 5 6 6 4 4 5 5 4 4 4 4 3 2 2 2 2 3 4 5 5 5 4 5 5 5 4 5 6 6 5
3 2 5 4 1 1 3 4 6 5 5 6 3 8 8 8 7 7 7 6 7 7 6 4 3 2 2 2 2 3 3 4 5 5 5 5 5 5 5 5 6 6 6 6
3 5 1 5 4 1 1 4 7 5 3 4 4 10 6 7 7 7 7 6 6 5 4 3 2 2 2 3 3 4 4 5 6 5 5 5 5 5 5 6 7 6 7 7
5 5 3 8 8 5 2 2 4 6 6 5 4 9 3 1 3 5 6 6 5 4 3 2 2 2 3 4 4 5 5 5 5 4 4 5 5 5 6 7 7 6 7 7
7 5 6 5 6 3 4 1 5 6 5 5 8 9 6 4 5 6 5 5 4 4 4 4 3 4 4 5 5 5 6 5 5 4 4 5 6 6 6 7 7 7 7 7
6 4 5 6 5 3 5 6 5 7 8 9 8 8 10 9 8 7 5 4 4 5 5 6 5 5 5 5 5 5 6 5 4 4 5 6 6 6 6 7 7 7 7 8
4 4 2 3 2 3 5 6 4 5 4 6 4 8 7 3 3 3 5 6 6 7 7 7 7 6 6 6 6 5 6 5 4 5 6 6 6 6 6 7 7 7 8 8
4 6 4 4 4 3 5 5 3 4 5 7 8 8 2 4 7 8 8 8 8 9 8 8 7 7 7 6 6 6 6 5 4 5 6 6 6 7 7 8 7 8 8 7
7 6 4 2 1 4 10 4 5 4 5 6 6 5 6 7 5 4 6 9 9 9 8 8 7 7 6 5 5 5 5 4 5 5 6 6 6 7 7 7 8 8 7 7
5 8 5 4 3 6 9 4 4 4 5 5 7 5 3 3 3 4 7 9 10 10 9 8 8 6 5 6 5 4 5 5 5 6 6 6 6 7 8 8 9 8 7 8
5 5 6 4 4 6 11 4 3 4 5 6 7 8 7 7 3 8 8 9 10 8 7 7 6 5 5 6 4 4 6 5 7 7 6 6 6 7 8 9 9 7 7 8
2 3 3 4 4 9 9 2 5 3 10 6 10 10 11 11 11 7 5 8 10 9 8 7 6 6 7 5 4 5 6 7 7 6 6 6 6 7 8 8 7 8 8 8
4 3 3 4 3 9 4 6 8 11 6 4 9 11 13 13 9 6 6 8 9 9 8 7 6 7 6 5 5 6 8 7 5 5 6 7 7 7 6 7 8 7 7 7
5 8 6 9 9 8 4 8 8 4 5 7 9 11 14 12 10 9 8 9 9 10 8 7 7 7 6 5 6 8 8 5 5 5 6 7 7 7 7 7 7 7 6 5
4 3 4 5 9 8 7 7 8 7 9 9 9 10 12 13 12 11 10 9 9 9 8 7 7 7 7 6 7 9 7 5 4 6 6 6 6 7 7 5 5 6 6 6
6 4 3 6 9 9 8 6 6 6 7 7 7 8 11 13 12 11 10 10 10 8 7 7 8 9 9 7 7 7 6 5 5 6 6 6 6 6 7 6 5 7 7 6
3 5 5 8 8 5 7 8 8 6 7 7 5 5 6 10 12 10 10 9 8 8 7 7 8 8 8 7 7 7 5 5 5 5 5 5 5 5 5 6 7 8 9 11
Wind_Direction
93 80 224 224 198 196 178 160 166 158 67 84 106 134 177 195 198 183 185 195 200 204 203 191 186 187 189 200 203 204 189 183 141 89 73 37 344 334 340 338 342 341 341 343
45 264 239 214 185 174 164 148 149 100 57 98 123 158 194 202 211 205 198 213 214 211 210 208 204 203 206 210 214 215 213 206 195 160 151 161 246 301 293 309 322 331 341 338
208 247 238 178 178 174 191 176 172 151 113 64 92 37 197 210 221 217 214 219 221 214 212 213 210 215 217 220 217 215 214 212 210 184 112 51 19 350 336 325 320 323 327 324
250 261 216 183 213 181 264 187 134 121 98 25 35 328 297 266 263 231 225 225 226 227 222 217 213 218 221 225 213 206 208 211 212 180 161 186 239 271 270 280 291 304 309 312
279 239 216 239 256 148 94 72 86 89 92 50 27 26 297 340 273 254 241 238 236 230 222 220 218 218 219 212 199 200 200 211 210 192 189 208 243 250 275 289 292 297 302 303
269 281 206 170 47 102 119 76 59 51 61 21 345 80 290 260 233 251 244 239 240 235 223 215 208 195 195 178 173 176 185 218 224 217 217 221 248 267 283 288 289 293 298 300
345 341 310 123 90 50 81 84 39 7 14 272 264 234 255 253 234 230 242 248 247 228 210 196 187 182 181 177 177 175 183 227 242 242 248 244 248 254 257 267 271 280 288 290
16 316 279 189 165 162 150 129 151 194 226 281 310 254 257 252 246 237 239 246 246 221 202 194 189 183 183 184 176 174 192 232 250 254 262 263 255 247 251 255 255 261 262 270
173 276 295 258 160 133 136 137 144 121 111 3 298 291 301 260 254 237 232 223 222 209 197 190 182 180 183 183 187 194 207 239 257 260 265 268 261 251 256 263 261 262 263 271
167 255 300 312 82 55 125 137 104 108 128 278 303 286 255 255 241 227 212 205 204 190 191 187 183 185 193 202 213 221 226 242 258 263 261 262 260 260 261 266 269 268 269 270
128 165 314 4 61 164 116 95 101 104 142 149 242 268 228 222 223 219 221 207 196 195 197 198 200 204 215 235 243 253 258 262 269 269 268 271 273 275 275 270 270 272 274 275
119 115 303 290 290 297 181 160 148 147 191 165 178 265 257 231 231 216 217 207 200 197 195 194 201 211 237 254 261 264 268 269 268 268 270 270 274 280 280 276 275 275 277 278
132 101 39 349 344 353 25 123 133 122 116 150 174 262 290 253 215 211 208 204 197 194 188 186 206 230 246 257 264 270 272 271 275 274 272 278 280 280 279 279 280 280 279 280
115 110 151 191 228 268 302 257 153 137 151 194 220 247 279 243 221 217 208 199 189 194 194 202 226 241 250 259 264 270 276 275 278 278 275 276 276 276 277 280 282 281 278 279
114 157 208 232 242 248 256 263 205 195 195 191 228 228 245 229 218 215 203 187 187 204 212 217 226 238 251 264 269 269 273 277 276 278 276 273 276 278 279 280 282 283 281 281
114 164 183 283 264 260 261 268 236 211 198 215 244 259 251 229 165 190 197 191 205 217 224 228 232 239 246 251 258 265 269 272 273 271 273 277 281 283 282 283 284 285 285 284
137 141 141 257 305 353 289 251 226 229 211 186 212 241 206 177 196 207 206 202 210 219 223 226 230 232 238 242 244 252 260 271 273 270 275 279 281 283 285 289 290 287 286 284
139 130 142 185 35 248 249 247 215 225 242 211 230 243 206 208 209 219 202 198 213 219 221 226 228 232 237 237 241 249 261 267 270 274 276 280 282 284 288 290 288 285 283 283
140 135 128 136 190 273 292 269 182 183 263 219 214 224 178 102 56 298 224 204 210 212 213 218 219 218 227 237 241 248 263 267 271 271 272 277 279 285 291 291 288 287 287 288
78 105 121 139 168 233 252 259 159 114 280 236 192 192 164 128 165 255 228 202 216 220 216 217 214 211 228 240 229 236 255 263 264 264 267 274 277 281 286 286 285 284 284 286
56 77 141 171 209 256 254 222 129 165 243 229 191 188 171 184 205 223 207 198 208 213 215 209 201 210 226 227 209 234 251 255 256 262 270 277 279 280 280 280 280 285 288 290
185 170 187 149 189 260 242 148 183 218 235 212 198 193 191 212 223 229 221 212 207 210 211 200 200 223 231 217 207 235 248 251 258 262 270 277 281 283 286 284 288 288 286 291
197 191 186 187 216 241 230 216 236 225 233 230 209 206 201 211 222 223 223 220 214 210 207 197 201 222 235 221 208 231 247 247 250 260 270 279 287 286 282 280 287 294 291 288
267 172 169 246 267 265 266 258 257 233 231 240 222 208 193 207 218 218 219 217 214 212 206 197 196 217 235 230 222 231 245 243 241 260 275 284 291 295 294 286 279 281 286 290
238 188 206 257 274 299 297 279 275 274 260 257 241 212 205 209 219 215 216 214 211 209 202 191 198 215 230 231 233 238 237 225 238 258 273 284 284 286 294 294 281 276 270 259
230 194 198 238 246 232 275 308 326 312 289 271 253 244 223 210 221 216 217 213 202 202 194 198 209 219 230 230 237 240 229 216 230 258 272 277 285 289 291 300 305 280 265 274